Location: Ottawa
(45.4170°N, 75.7000°W)
Time: 22:10:17
(UTC-04:00)

ISS - Pass Details

Date: 03 October 2020
Orbit: 417 x 420 km, 51.6° (Epoch: 25 October)

Event Time Altitude Azimuth Distance (km) Brightness Sun altitude
Rises 19:43:47 0° 299° (WNW) 2,370 1.4 -12.3°
Reaches altitude 10° 19:45:54 10° 301° (WNW) 1,504 0.2 -12.7°
Maximum altitude 19:49:16 78° 27° (NNE) 434 -3.8 -13.3°
Enters shadow 19:51:04 25° 111° (ESE) 878 -2.7 -13.6°
